Content
SEND FEEDBACK

Daily
Averages
Monthly
Summary
Mexico

SAN MARTINIANO, QUINTANA ROO


Home > North America > Mexico > Quintana Roo
Elevation: 49 feet     Latitude: 20 47N     Longitude: 087 16W

WEATHER
 
SELECT A DAY
Number of Records: 202,462;   Date Range: 2/21/06 - 10/29/14
 
SHARE

PRINT THIS DATA

[ ← Previous Day ]
WEATHER ALMANAC - APRIL 7, 2014
[ Next Day → ]
[ °C ]   °F
Weather ElementAverageHighLow
Temperature78.6 °F91.4 °F (1:55 pm)66.2 °F (12:35 am)
Dewpoint50.3 °F73.4 °F (11:35 pm) (7:00 pm)
Humidity62.5 %100 % (12:35 am)34 % (3:55 pm)
Barometer29.92 in29.98 in (12:35 am)29.87 in (3:15 pm)
Wind Speed9.3 mph18.4 mph (3:55 pm)
Wind Gust27.6 mph (3:55 pm)
Weather ElementAverage
Visibility10 mi
Wind DirectionSSE (170 °)

Weather ElementTotal
Precipitation0.01 in
Cooling Degree Days13.8 (Base 65)
Growing Degree Days28.8 (Base 50)
Averaged from 70 records on April 7, 2014
WEATHER CONDITIONS BREAKOUT
WIND DIRECTION BREAKOUT
WEATHER BY HOUR - APRIL 7, 2014
[ °C ]   °F
Local TimeTemperatureDewpointHumidityBarometerVisibilityWind DirectionWind SpeedGust SpeedPrecipitationEventsConditions
12:35 AM66.2 °F66.2 °F100 %29.98 in10.0 miCalmClear
12:55 AM68.0 °F66.2 °F94 %29.97 in10.0 miCalmClear
1:15 AM68.0 °F66.2 °F94 %29.96 in10.0 miSE (140°)3.5 mphClear
1:35 AM66.2 °F66.2 °F100 %29.95 in10.0 miCalmClear
1:55 AM69.8 °F0.0 °F29.95 in10.0 miSouth (170°)3.5 mphClear
2:15 AM69.8 °F64.4 °F83 %29.95 in10.0 miSSW (200°)4.6 mphClear
2:35 AM68.0 °F64.4 °F88 %29.95 in10.0 miSSE (160°)3.5 mphClear
2:55 AM68.0 °F64.4 °F88 %29.94 in10.0 miSouth (170°)3.5 mphClear
3:15 AM68.0 °F66.2 °F94 %29.93 in10.0 miSouth (170°)4.6 mphClear
3:35 AM68.0 °F68.0 °F100 %29.93 in10.0 miSSE (150°)3.5 mphClear
3:55 AM68.0 °F68.0 °F100 %29.92 in10.0 miSSE (160°)4.6 mphClear
4:15 AM68.0 °F68.0 °F100 %29.93 in10.0 miSSE (150°)4.6 mphClear
4:35 AM68.0 °F0.0 °F29.93 in10.0 miSSE (160°)5.8 mphClear
4:55 AM68.0 °F0.0 °F29.93 in10.0 miSSE (160°)4.6 mphClear
5:15 AM68.0 °F0.0 °F29.93 in10.0 miSE (140°)3.5 mphClear
5:35 AM68.0 °F0.0 °F29.93 in10.0 miSSE (150°)3.5 mphClear
5:55 AM68.0 °F0.0 °F29.93 in10.0 miSE (140°)3.5 mphClear
6:15 AM68.0 °F0.0 °F29.94 in10.0 miSE (140°)6.9 mphClear
6:35 AM68.0 °F0.0 °F29.95 in10.0 miSE (140°)5.8 mphClear
6:55 AM68.0 °F0.0 °F29.96 in10.0 miSE (140°)4.6 mphClear
7:15 AM69.8 °F0.0 °F29.96 in10.0 miSE (140°)5.8 mphClear
7:35 AM69.8 °F0.0 °F29.96 in10.0 miSSE (150°)6.9 mphClear
7:55 AM69.8 °F0.0 °F29.96 in10.0 miSSE (150°)6.9 mphClear
8:15 AM71.6 °F0.0 °F29.96 in10.0 miSSE (150°)8.1 mphClear
8:35 AM71.6 °F0.0 °F29.96 in10.0 miSSE (160°)11.5 mph16.1 mphClear
8:55 AM73.4 °F0.0 °F29.96 in10.0 miSSE (150°)10.4 mphClear
9:15 AM75.2 °F0.0 °F29.95 in10.0 miSouth (170°)11.5 mphClear
9:35 AM75.2 °F71.6 °F89 %29.95 in10.0 miSSE (160°)11.5 mph17.3 mphClear
9:55 AM78.8 °F69.8 °F74 %29.95 in10.0 miSouth (170°)11.5 mph16.1 mphClear
10:15 AM80.6 °F69.8 °F70 %29.94 in10.0 miSSE (160°)10.4 mph16.1 mphClear
10:35 AM80.6 °F68.0 °F65 %29.95 in10.0 miSouth (170°)11.5 mph16.1 mphClear
10:55 AM82.4 °F66.2 °F58 %29.94 in10.0 miSSE (160°)12.7 mphClear
11:15 AM84.2 °F66.2 °F55 %29.94 in10.0 miSouth (190°)12.7 mph20.7 mphClear
11:55 AM86.0 °F62.6 °F45 %29.94 in10.0 miSouth (180°)10.4 mph21.9 mphClear
12:15 PM86.0 °F62.6 °F45 %29.93 in10.0 miSouth (170°)13.8 mph18.4 mphClear
12:35 PM87.8 °F60.8 °F40 %29.93 in10.0 miSouth (190°)17.3 mph24.2 mphClear
12:55 PM89.6 °F60.8 °F38 %29.92 in10.0 miSouth (180°)16.1 mph21.9 mphClear
1:15 PM89.6 °F60.8 °F38 %29.91 in10.0 miSSW (200°)13.8 mph18.4 mphClear
1:35 PM89.6 °F62.6 °F40 %29.91 in10.0 miSSW (200°)10.4 mph21.9 mphScattered Clouds
1:55 PM91.4 °F60.8 °F36 %29.90 in10.0 miSSW (200°)15.0 mph24.2 mphScattered Clouds
2:15 PM91.4 °F62.6 °F38 %29.90 in10.0 miSouth (190°)17.3 mphScattered Clouds
2:35 PM89.6 °F62.6 °F40 %29.89 in10.0 miSouth (180°)11.5 mphMostly Cloudy
2:55 PM91.4 °F60.8 °F36 %29.88 in10.0 miSSW (200°)16.1 mph20.7 mphScattered Clouds
3:15 PM91.4 °F60.8 °F36 %29.87 in10.0 miSouth (190°)17.3 mph24.2 mphScattered Clouds
3:35 PM91.4 °F62.6 °F38 %29.87 in10.0 miSSW (200°)16.1 mph21.9 mphScattered Clouds
3:55 PM91.4 °F59.0 °F34 %29.87 in10.0 miSSW (210°)18.4 mph27.6 mphClear
4:15 PM89.6 °F59.0 °F36 %29.87 in10.0 miSSW (210°)15.0 mph27.6 mphScattered Clouds
4:35 PM89.6 °F59.0 °F36 %29.87 in10.0 miSSW (210°)15.0 mph23.0 mphScattered Clouds
4:55 PM89.6 °F59.0 °F36 %29.87 in10.0 miSW (230°)16.1 mph20.7 mphScattered Clouds
5:15 PM89.6 °F60.8 °F38 %29.87 in10.0 miSW (220°)11.5 mph17.3 mphScattered Clouds
5:35 PM87.8 °F59.0 °F38 %29.87 in10.0 miSW (220°)13.8 mph19.6 mphScattered Clouds
5:55 PM87.8 °F60.8 °F40 %29.87 in10.0 miSSW (210°)9.2 mphScattered Clouds
6:15 PM87.8 °F60.8 °F40 %29.88 in10.0 miSW (220°)13.8 mph19.6 mphClear
6:35 PM86.0 °F60.8 °F43 %29.88 in10.0 miSSW (210°)12.7 mph20.7 mphScattered Clouds
6:55 PM86.0 °F62.6 °F45 %29.88 in10.0 miSSW (210°)11.5 mph18.4 mphScattered Clouds
7:15 PM84.2 °F62.6 °F48 %29.88 in10.0 miSSW (200°)12.7 mph19.6 mphScattered Clouds
7:35 PM84.2 °F64.4 °F51 %29.88 in10.0 miSouth (190°)8.1 mphScattered Clouds
7:55 PM82.4 °F66.2 °F58 %29.89 in10.0 miSouth (190°)10.4 mphScattered Clouds
8:15 PM82.4 °F66.2 °F58 %29.89 in10.0 miSSW (210°)8.1 mphMostly Cloudy
8:35 PM82.4 °F68.0 °F62 %29.88 in10.0 miSouth (190°)8.1 mphRainLight Rain
8:55 PM80.6 °F69.8 °F70 %29.87 in10.0 miSouth (190°)6.9 mph0.01 inMostly Cloudy
9:15 PM78.8 °F69.8 °F74 %29.87 in10.0 miSouth (180°)8.1 mphScattered Clouds
9:35 PM78.8 °F69.8 °F74 %29.88 in10.0 miSouth (180°)9.2 mph16.1 mphMostly Cloudy
9:55 PM78.8 °F71.6 °F78 %29.88 in10.0 miSouth (170°)6.9 mphOvercast
10:15 PM78.8 °F71.6 °F78 %29.90 in10.0 miSouth (180°)8.1 mphScattered Clouds
10:35 PM78.8 °F71.6 °F78 %29.90 in10.0 miSouth (170°)8.1 mphScattered Clouds
10:55 PM77.0 °F71.6 °F83 %29.91 in10.0 miSouth (170°)6.9 mphClear
11:15 PM77.0 °F71.6 °F83 %29.90 in10.0 miSouth (170°)10.4 mphClear
11:35 PM77.0 °F73.4 °F89 %29.89 in10.0 miSouth (180°)11.5 mphClear
11:55 PM77.0 °F71.6 °F83 %29.88 in10.0 miSouth (180°)9.2 mph17.3 mphScattered Clouds
Hourly data recorded from KPCM, located miles away from San Martiniano, Quintana Roo







STORIES FROM OUR PARTNERS